Regional Weather Roundup
Issued by NWS State College, PA

Home | Current Version | Previous Version | Graphics & Text | Print | Product List | Glossary Off
Versions: 1 2 3 4 5 6 7 8 9 10 11 12 13 14 15 16 17 18 19 20 21 22 23 24 25 26 27 28 29 30 31 32 33 34 35 36 37 38 39 40 41 42 43 44 45 46 47 48 49 50

544
ASUS41 KCTP 261410
RWRCTP
REGIONAL WEATHER ROUNDUP
NATIONAL WEATHER SERVICE STATE COLLEGE PA
1000 AM EDT TUE SEP 26 2017

Note: "fair" indicates few or no clouds below 12,000 feet with no
significant weather and/or obstructions to visibility.

* = STATION THAT DOES NOT REPORT PRECIPITATION /E.G. RAIN...SNOW...ETC/
    THUNDER OR FOG.

PAZ002>004-007>009-013>016-020>023-029>032-261500-
WESTERN PENNSYLVANIA

CITY           SKY/WX    TMP DP  RH WIND       PRES   REMARKS
ERIE           SUNNY     79  65  62 S7        30.04R
MEADVILLE      SUNNY     78  65  63 CALM      30.08R
FRANKLIN*      SUNNY     73  66  78 S3        30.10S
NEW CASTLE     FAIR      72  67  84 CALM      30.08S
BEAVER COUNTY  SUNNY     75  64  69 CALM      30.08S
BUTLER*        SUNNY     73  68  84 CALM      30.08S
PITTSBURGH INT MOSUNNY   74  67  78 CALM      30.07S
PITTSBURGH     MOSUNNY   76  66  71 CALM      30.07S
INDIANA*       SUNNY     77  68  73 SE6       30.11S
LATROBE        PTSUNNY   73  70  88 CALM      30.08S
WASHINGTON CO* SUNNY     72  66  83 MISG        N/A
$$

PAZ004>006-010>012-017>019-024>028-033>037-041-042-045-046-049>053-261500-
CENTRAL PENNSYLVANIA

CITY           SKY/WX    TMP DP  RH WIND       PRES   REMARKS
BRADFORD       CLOUDY    73  68  84 SE3       30.12S
DUBOIS         SUNNY     75  65  70 CALM      30.10S
CLEARFIELD     MOSUNNY   68  66  93 NE3       30.11S
JOHNSTOWN      SUNNY     75  66  73 CALM      30.13R
ALTOONA        SUNNY     71  68  90 CALM      30.11R
STATE COLLEGE  SUNNY     66  66 100 CALM      30.10R FOG
WILLIAMSPORT   MOSUNNY   74  69  85 SW5       30.05F
SELINSGROVE    MOSUNNY   75  70  84 CALM      30.07S HAZE
FT INDIANTOWN  PTSUNNY   73  72  99 CALM      30.06S
CAPITAL CITY   MOSUNNY   77  68  73 CALM      30.06S HAZE
HARRISBURG     MOSUNNY   77  70  79 N7        30.05S HAZE
YORK           MOSUNNY   75  70  84 N5        30.06R
$$

PAZ038>040-043-044-047-048-054-055-060>062-067>071-261500-
EASTERN PENNSYLVANIA

CITY           SKY/WX    TMP DP  RH WIND       PRES   REMARKS
SCRANTON       MOSUNNY   78  65  63 CALM      30.07S
MOUNT POCONO   CLOUDY    73  64  73 CALM      30.12R
ALLENTOWN      CLOUDY    75  66  73 E5        30.07R
QUAKERTOWN*    CLOUDY    73  66  78 E5        30.08S
READING        MOSUNNY   75  69  81 N6        30.05S
LANCASTER      MOSUNNY   76  68  76 NE5       30.06R
COATESVILLE    MOSUNNY   73  66  78 NE3       30.07S
POTTSTOWN      NOT AVBL
BLUE BELL      MOSUNNY   72  66  83 E5        30.07S
DOYLESTOWN     MOSUNNY   71  66  84 N5        30.06S
WILLOW GROVE   NOT AVBL
NORTH PHILA    CLOUDY    73  67  81 NE8       30.07S
PHILADELPHIA   PTSUNNY   71  66  84 E9        30.05S
$$




USA.gov is the U.S. government's official web portal to all federal, state and local government web resources and services.